Regional Weather Roundup
Issued by NWS

Home | Current Version | Previous Version | Graphics & Text | Print | Product List | Glossary On
Versions: 1 2 3 4 5 6 7 8 9 10 11 12 13 14 15 16 17 18 19 20 21 22 23 24 25 26 27 28 29 30 31 32 33 34 35 36 37 38 39 40 41 42 43 44 45 46 47 48 49 50
000
ASUS45 KABQ 141110
RWRNM
WEATHER ROUNDUP FOR NEW MEXICO
NATIONAL WEATHER SERVICE ALBUQUERQUE NM
500 AM MDT MON JUL 14 2014

NOTE: "FAIR" MEANS FEW OR NO CLOUDS BELOW 12,000 FEET AGL WITH NO
       SIGNIFICANT WEATHER OR OBSTRUCTIONS TO VISION.

      THIS PRODUCT IS RELEASED AS TWO VERSIONS.  ONE VERSION NEAR
      THE TOP OF THE HOUR CONTAINING PRELIMINARY DATA FROM ALBUQUERQUE
      AND OTHER STATIONS.  A FINAL VERSION WITH ADDITIONAL DATA IS
      ISSUED ABOUT 10 MINUTES AFTER THE HOUR.

NMZ501-503-504-510>518-141200-
NORTHWEST PLATEAU/NORTHCENTRAL MOUNTAINS

CITY           SKY/WX    TMP DP  RH WIND       PRES   REMARKS
FARMINGTON     PTCLDY    67  52  58 E7        30.28S
LOS ALAMOS     CLOUDY    59  54  82 CALM      30.41S
SANTA FE       MOCLDY    60  56  86 N13       30.34S
TAOS             N/A    N/A N/A N/A MISG        N/A
ANGEL FIRE     PTSUNNY   55  53  94 N7        30.51R

$$
NMZ402-403-502-505>509-141200-
WESTCENTRAL MOUNTAINS/SOUTHWEST MOUNTAINS

CITY           SKY/WX    TMP DP  RH WIND       PRES   REMARKS
GALLUP         CLOUDY    61  58  90 CALM      30.38R
GRANTS         CLOUDY    61  55  81 SE8       30.37S
SILVER CITY    PTCLDY    63  55  77 NW7       30.26S

$$
NMZ407-409-411-412-141200-
SOUTHERN DESERTS

CITY           SKY/WX    TMP DP  RH WIND       PRES   REMARKS
LORDSBURG      FAIR      70  57  64 CALM      30.17S
DEMING         MOCLDY    75  55  49 NE9       30.16R
LAS CRUCES     MOCLDY    73  58  57 N9        30.18S
HOLLOMAN AFB   CLEAR     65  56  73 N5        30.16R
ALAMOGORDO     CLEAR     66  57  72 NE6       30.17S
T OR C         MOCLDY    71  55  56 NW5       30.24R

$$
NMZ519>523-141200-
CENTRAL VALLEYS/CENTRAL HIGHLANDS

CITY           SKY/WX    TMP DP  RH WIND       PRES   REMARKS
ALBUQUERQUE    PTCLDY    65  56  72 S5        30.29R
DOUBLE EAGLE   PTCLDY    63  52  67 CALM      30.31S
MORIARTY ARPT  FAIR      55  52  91 W7        30.35S
CLINES CORNERS PTCLDY    57  50  77 CALM      30.37S
BELEN          NOT AVBL
SOCORRO        CLOUDY    66  61  81 W3        30.27R

$$
NMZ524>526-539-540-141200-
SOUTHCENTRAL MOUNTAINS

CITY           SKY/WX    TMP DP  RH WIND       PRES   REMARKS
RUIDOSO        MOCLDY    61  54  77 S3        30.39S

$$
NMZ527>531-141200-
NORTHEAST HIGHLANDS/NORTHEAST PLAINS

CITY           SKY/WX    TMP DP  RH WIND       PRES   REMARKS
LAS VEGAS      MOCLDY    57  51  80 NW3       30.37F
RATON          CLOUDY    62  59  90 SE3       30.32F
CLAYTON        MOCLDY    63  57  81 VRB3      30.23F

$$
NMZ532>537-141200-
EASTCENTRAL PLAINS

CITY           SKY/WX    TMP DP  RH WIND       PRES   REMARKS
TUCUMCARI      CLEAR     66  56  70 NW6       30.17F
CANNON AFB     MOCLDY    68  62  82 N6        30.19R
CLOVIS AIRPORT NOT AVBL

$$
NMZ028-029-538-141200-
SOUTHEAST PLAINS

CITY           SKY/WX    TMP DP  RH WIND       PRES   REMARKS
ROSWELL        CLEAR     72  55  55 CALM      30.16S
ARTESIA        CLEAR     72  54  53 N6        30.16S
CARLSBAD       CLEAR     74  56  53 NE7       30.12R


$$



USA.gov is the U.S. government's official web portal to all federal, state and local government web resources and services.